Weather History for KPSC - November, 2011

Change the Weather History Date:

Friday, November 4, 2011

  Actual Average Record
Temperature  
Mean Temperature 41 °F 45 °F  
Max Temperature 53 °F 56 °F 71 °F (2007)
Min Temperature 28 °F 35 °F 14 °F (2002)
Degree Days  
Heating Degree Days 24 20  
Month to date heating degree days 103 77  
Since 1 July heating degree days 496 595  
Cooling Degree Days 0 0  
Month to date cooling degree days 0 0  
Year to date cooling degree days 632 710  
Moisture  
Dew Point 28 °F    
Average Humidity 63    
Maximum Humidity 96    
Minimum Humidity 30    
Precipitation  
Precipitation 0.00 in 0.03 in 0.35 in (1973)
Month to date precipitation T 0.11  
Year to date precipitation 5.96 6.64  
Snow  
Snow 0.00 in - - ()
Snow Depth 0.00 in    
Sea Level Pressure  
Sea Level Pressure 29.84 in    
Wind  
Wind Speed 3 mph (WSW)    
Max Wind Speed 15 mph    
Max Gust Speed 20 mph    
Visibility 10 miles    
Events      
T = Trace of Precipitation, MM = Missing Value Source: NWS Daily Summary

Daily Weather History Graph

Daily Weather History Graph

Search for Another Location

Airport or City:

Trip Planner

Search our weather history database for the weather conditions in past years. The results will help you decide how hot, cold, wet, or windy it might be!

Date:

Astronomy

Nov. 04, 2011 Rise Set
Actual Time 7:41 AM PDT 5:37 PM PDT
Civil Twilight 7:10 AM PDT 6:09 PM PDT
Nautical Twilight 6:34 AM PDT 6:45 PM PDT
Astronomical Twilight 5:59 AM PDT 7:19 PM PDT
Moon 2:47 PM PDT (11/4) 1:39 AM PDT (11/4)
Length of Visible Light 10h 59m
Length of Day
9h 56m
Waxing Gibbous, 70% of the Moon is Illuminated
Nov 4
Waxing Gibbous
Nov 10
Full
Nov 18
Last Quarter
Nov 24
New
Dec 2
First Quarter

Hourly Weather History & Observations

Time (PDT) Temp. Windchill Dew Point Humidity Pressure Visibility Wind Dir Wind Speed Gust Speed Precip Events Conditions
1:53 AM 36.0 °F 32.1 °F 33.1 °F 89% 29.80 in 10.0 mi NW 4.6 mph - N/A   Partly Cloudy
2:53 AM 34.0 °F 31.0 °F 32.0 °F 92% 29.81 in 9.0 mi North 3.5 mph - N/A   Clear
3:53 AM 33.1 °F - 30.9 °F 92% 29.81 in 7.0 mi Calm Calm - N/A   Mostly Cloudy
4:53 AM 34.0 °F - 32.0 °F 92% 29.82 in 10.0 mi Calm Calm - N/A   Overcast
5:53 AM 32.0 °F - 30.9 °F 96% 29.83 in 10.0 mi Calm Calm - N/A   Mostly Cloudy
6:53 AM 30.9 °F 27.5 °F 28.9 °F 92% 29.83 in 8.0 mi North 3.5 mph - N/A   Clear
7:53 AM 30.9 °F - 28.9 °F 92% 29.85 in 10.0 mi Calm Calm - N/A   Clear
8:53 AM 33.1 °F - 30.0 °F 89% 29.86 in 10.0 mi Calm Calm - N/A   Clear
9:53 AM 37.0 °F - 32.0 °F 82% 29.87 in 10.0 mi Calm Calm - N/A   Clear
10:53 AM 41.0 °F - 30.9 °F 67% 29.87 in 10.0 mi Calm Calm - N/A   Clear
11:53 AM 45.0 °F 43.5 °F 28.9 °F 53% 29.87 in 10.0 mi WSW 3.5 mph - N/A   Clear
12:53 PM 50.0 °F - 25.0 °F 38% 29.85 in 10.0 mi NNW 5.8 mph - N/A   Clear
1:53 PM 51.1 °F - 25.0 °F 36% 29.83 in 10.0 mi Calm Calm - N/A   Clear
2:53 PM 53.1 °F - 24.1 °F 32% 29.83 in 10.0 mi Calm Calm - N/A   Clear
3:53 PM 51.1 °F - 21.0 °F 31% 29.83 in 10.0 mi West 5.8 mph - N/A   Clear
4:53 PM 51.1 °F - 24.1 °F 35% 29.83 in 10.0 mi SSW 12.7 mph - N/A   Clear
5:53 PM 46.0 °F 43.1 °F 26.1 °F 46% 29.83 in 10.0 mi SSW 5.8 mph - N/A   Clear
6:53 PM 42.1 °F 37.7 °F 25.0 °F 51% 29.84 in 10.0 mi SW 6.9 mph - N/A   Clear
7:53 PM 41.0 °F - 28.9 °F 62% 29.85 in 10.0 mi Calm Calm - N/A   Clear
8:53 PM 41.0 °F 35.8 °F 28.9 °F 62% 29.86 in 10.0 mi South 8.1 mph - N/A   Clear
9:53 PM 39.0 °F 32.8 °F 28.9 °F 67% 29.86 in 10.0 mi SSW 9.2 mph - N/A   Clear
10:53 PM 35.1 °F 30.1 °F 27.0 °F 72% 29.86 in 10.0 mi SSW 5.8 mph - N/A   Clear
11:53 PM 33.1 °F 30.0 °F 26.1 °F 75% 29.85 in 10.0 mi SE 3.5 mph - N/A   Clear